Regional Weather Roundup
Issued by NWS

Home | Current Version | Previous Version | Graphics & Text | Print | Product List | Glossary On
Versions: 1 2 3 4 5 6 7 8 9 10 11 12 13 14 15 16 17 18 19 20 21 22 23 24 25 26 27 28 29 30 31 32 33 34 35 36 37 38 39 40 41 42 43 44 45 46 47 48 49 50
000
ASUS43 KDTX 022110
RWRMI
MICHIGAN HOURLY REGIONAL WEATHER ROUNDUP
NATIONAL WEATHER SERVICE DETROIT/PONTIAC MI
400 PM EST MON MAR 02 2015

NOTE: "FAIR" INDICATES FEW OR NO CLOUDS BELOW 12,000 FEET WITH NO
SIGNIFICANT WEATHER AND/OR OBSTRUCTION TO VISIBILITY.

MIZ047>049-052>055-059>063-066>070-074>076-081>083-022200-
SOUTHEAST LOWER MICHIGAN

CITY           SKY/WX    TMP DP  RH WIND       PRES   REMARKS
ADRIAN         SUNNY     30  14  51 NW6       30.44F
ALMA           SUNNY     30  11  45 W8        30.41S
ANN ARBOR      SUNNY     29  12  49 W10       30.42S
BAD AXE        SUNNY     26  11  54 W12       30.41S
DETROIT CITY   SUNNY     33   9  36 NW7       30.42S
DETROIT        PTSUNNY   32  12  43 W12       30.43F
FLINT          SUNNY     30  12  47 W12       30.42F
GROSSE ILE     SUNNY     30  14  51 SW10      30.41F
HILLSDALE      SUNNY     28  13  54 NW9       30.41S
HOWELL         SUNNY     29  12  48 W10       30.40F

CITY           SKY/WX    TMP DP  RH WIND       PRES   REMARKS
JACKSON        SUNNY     29  13  51 SW13      30.40F
LAMBERTVILLE   SUNNY     32  16  51 W9        30.45S
LANSING        SUNNY     29  12  49 W13       30.42F
LAPEER         NOT AVBL
MASON          SUNNY     30  12  48 W7        30.41F
MONROE         SUNNY     28  16  59 SW10      30.43S
MT. CLEMENS    MOSUNNY   30  10  42 W12       30.40S
PONTIAC        MOSUNNY   28  10  46 W13       30.39F
PORT HOPE        N/A     27   9  46 VRB7      30.39S
PORT HURON     SUNNY     28  10  47 W6        30.43R
TRI CITIES     SUNNY     29  11  47 SW15      30.41F
YPSILANTI      SUNNY     34  13  41 VRB5      30.43S
$$
MIZ043>046-050>051-056>058-064>065-071>073-077>080-022200-
SOUTHWEST LOWER MICHIGAN

CITY           SKY/WX    TMP DP  RH WIND       PRES   REMARKS
BATTLE CREEK   SUNNY     31  13  47 W10       30.42F
BENTON HARBOR  SUNNY     25  17  72 VRB5      30.46F
BIG RAPIDS     SUNNY     30   7  37 W7        30.38S
COLDWATER      SUNNY     29  13  52 W7        30.43S
HOLLAND        MOSUNNY   28  14  55 W10       30.46S
GRAND RAPIDS   MOSUNNY   27  14  58 W13       30.43S
KALAMAZOO      SUNNY     29  15  56 W12       30.43F
MARSHALL       SUNNY     29  14  53 W8        30.41F
MUSKEGON       MOSUNNY   26  12  55 SW9       30.46S
$$
MIZ016>042-022200-
NORTHERN LOWER MICHIGAN

CITY           SKY/WX    TMP DP  RH WIND       PRES   REMARKS
ALPENA         SUNNY     28   3  34 W8        30.36S
BEAVER ISLAND  SUNNY     22   7  52 SW9       30.39F
BELLAIRE       SUNNY     25   5  42 NW3       30.42S
CADILLAC       SUNNY     26   4  38 W6        30.35S
CHARLEVOIX     SUNNY     21   8  56 CALM      30.44S
FRANKFORT      CLEAR     24  11  59 CALM      30.43S
GAYLORD        SUNNY     22   0  38 W9G16     30.34F
GRAYLING       SUNNY     26   0  33 W12       30.36S
HARBOR SPRINGS SUNNY     21   9  59 W9        30.40S
HOUGHTON LAKE  SUNNY     26   4  38 W9        30.36F
MANISTEE       SUNNY     23   7  50 W7        30.44F
OSCODA         SUNNY     31   5  33 NW5       30.37S
PELLSTON       SUNNY     22   7  52 W12       30.39S
TRAVERSE CITY  MOSUNNY   25   5  42 NW7       30.40S
$$
MIZ007>008-015-022200-
EASTERN UPPER MICHIGAN

CITY           SKY/WX    TMP DP  RH WIND       PRES   REMARKS
KINROSS        SUNNY     21  10  63 N12       30.35S
MACKINAC ISLAN SUNNY     22  10  61 SW12G18   30.37R
NEWBERRY       SUNNY     22   2  42 W8        30.36R
S. S. MARIE    SUNNY     19   6  57 NW14      30.36S
$$
MIZ004>006-011>014-085-022200-
CENTRAL UPPER MICHIGAN

CITY           SKY/WX    TMP DP  RH WIND       PRES   REMARKS
MANISTIQUE     SUNNY     24   7  48 S9        30.36S
ESCANABA       SUNNY     25  12  58 S17       30.37S
MENOMINEE      SUNNY     27  10  50 SW14      30.37F
SAWYER-GWINN   SUNNY     27   0  31 CALM      30.29F
$$
MIZ001>003-009>011-084-022200-
WESTERN UPPER MICHIGAN

CITY           SKY/WX    TMP DP  RH WIND       PRES   REMARKS
IRON MOUNTAIN  SUNNY     29   4  34 SW5       30.29F
HOUGHTON       SUNNY     22   6  50 W14       30.29F
COPPER HARBOR    N/A     21  11  65 N16       30.32F
IRONWOOD       SUNNY     27   3  36 W9        30.23F
$$

ABBREVIATIONS USED IN REMARKS
   TC - TEMPERATURE IN CELSIUS
  WCI - WIND CHILL INDEX
   HX - HEAT INDEX
  VSB - VISIBILITY



USA.gov is the U.S. government's official web portal to all federal, state and local government web resources and services.